Regional Weather Roundup
Issued by NWS Binghamton, NY

Home | Current Version | Previous Version | Text Only | Print | Product List | Glossary On
Versions: 1 2 3 4 5 6 7 8 9 10 11 12 13 14 15 16 17 18 19 20 21 22 23 24 25 26 27 28 29 30 31 32 33 34 35 36 37 38 39 40 41 42 43 44 45 46 47 48 49 50
000
ASUS41 KBGM 060610
RWRBGM
RWRBGM
BINGHAMTON REGIONAL WEATHER ROUNDUP
NATIONAL WEATHER SERVICE BINGHAMTON NY
100 AM EST FRI MAR 06 2015

Note: "fair" indicates few or no clouds below 12,000 feet with no
significant weather and/or obstructions to visibility.

* = Station(s) that does not report precipitation, such as rain,
snow, etc, also no thunder or fog.

!NYZ009-015>018-022>025-036-037-044>046-055>057-062-060700
...CENTRAL NEW YORK...

CITY           SKY/WX    TMP DP  RH WIND       PRES   REMARKS
BINGHAMTON     CLEAR      2  -2  83 W5        30.33R WCI  -8
CORTLAND       FLURRIES   1   0  92 CALM      30.40S
DANSVILLE      CLEAR      2  -5  72 CALM      30.47S
ELMIRA         CLEAR      5  -4  66 S9        30.43F WCI  -9
ITHACA         CLOUDY    -1  -5  83 CALM      30.41S
MONTICELLO     CLEAR      7   0  72 NW9       30.33R WCI  -7
NORWICH        LGT SNOW   0  -4  85 CALM      30.40S
ONEONTA        LGT SNOW   3   0  85 W5        30.30S WCI  -6
PENN YAN       CLEAR      5  -5  63 SW8       30.42S WCI  -8
ROME           LGT SNOW   5   3  91 W6        30.45R FOG     WCI  -6
SIDNEY         CLEAR      1   0  92 CALM      30.40R
SYRACUSE       FLURRIES   4   1  88 W10       30.45S WCI -11
$$

!PAZ038>040-043-044-047-048-072-060700
...NORTHEAST PENNSYLVANIA...

CITY           SKY/WX    TMP DP  RH WIND       PRES   REMARKS
HAZLETON       CLEAR      9   0  66 MISG      30.34F
SCRANTON       CLEAR      9  -3  58 N5        30.40S WCI   1
TOWANDA*       CLEAR      7  -2  66 CALM      30.45F
$$
&&
KEY
WCI = WIND CHILL INDEX
VSB = VISIBILITY
HX  = HEAT INDEX
$$


USA.gov is the U.S. government's official web portal to all federal, state and local government web resources and services.